Monarch Pass, CO

6:06 PM MDT on May 25, 2017 (GMT -0600)
Monarch Pass

Weather History for KMYP - November, 2013

Change the Weather History Date:

Wednesday, November 6, 2013

  Actual Average (KALS) Record (KALS)
Temperature  
Mean Temperature 11 °F -  
Max Temperature 19 °F 53 °F 67 °F (1945)
Min Temperature 3 °F 16 °F -1 °F (2008)
Degree Days  
Heating Degree Days 54    
Moisture  
Dew Point 8 °F    
Average Humidity 84    
Maximum Humidity 93    
Minimum Humidity 79    
Precipitation  
Precipitation 0.00 in - - ()
Sea Level Pressure  
Sea Level Pressure 30.42 in    
Wind  
Wind Speed 39 mph (West)    
Max Wind Speed 41 mph    
Max Gust Speed 47 mph    
Visibility 9 miles    
Events      
Averages and records for this station are not official NWS values.
T = Trace of Precipitation, MM = Missing Value Source: NWS Daily Summary

Daily Weather History Graph

Daily Weather History Graph

Search for Another Location

Airport or City:

Trip Planner

Search our weather history database for the weather conditions in past years. The results will help you decide how hot, cold, wet, or windy it might be!

Date:

Astronomy

Nov. 06, 2013 Rise Set
Actual Time 6:36 AM MST 4:59 PM MST
Civil Twilight 6:08 AM MST 5:27 PM MST
Nautical Twilight 5:37 AM MST 5:58 PM MST
Astronomical Twilight 5:06 AM MST 6:29 PM MST
Moon 9:53 AM MST (11/6) 8:08 PM MST (11/6)
Length of Visible Light 11h 18m
Length of Day
10h 23m
Waxing Crescent, 14% of the Moon is Illuminated
Nov 6
Waxing Crescent
Nov 9
First Quarter
Nov 17
Full
Nov 25
Last Quarter
Dec 2
New

Hourly Weather History & Observations

Time (MST) Temp. Windchill Dew Point Humidity Pressure Visibility Wind Dir Wind Speed Gust Speed Precip Events Conditions
12:16 AM 5.0 °F - 1.4 °F 85% 30.26 in - North - - N/A   Overcast
12:36 AM 5.0 °F - 1.4 °F 85% 30.27 in - North - - N/A   Overcast
12:56 AM 5.0 °F - 1.4 °F 85% 30.27 in - North - - N/A   Overcast
1:16 AM 5.0 °F - 1.4 °F 85% 30.27 in - North - - N/A   Overcast
1:36 AM 5.0 °F - 1.4 °F 85% 30.27 in - North - - N/A   Overcast
1:56 AM 3.2 °F - -0.4 °F 85% 30.27 in - North - - N/A   Overcast
2:16 AM 3.2 °F - 1.4 °F 92% 30.27 in - North - - N/A   Mostly Cloudy
2:36 AM 5.0 °F - 1.4 °F 85% 30.27 in - North - - N/A   Overcast
2:56 AM 5.0 °F - 1.4 °F 85% 30.29 in - North - - N/A   Overcast
3:16 AM 5.0 °F - 1.4 °F 85% 30.28 in - North - - N/A   Overcast
3:36 AM 5.0 °F - 1.4 °F 85% 30.27 in - North - - N/A   Overcast
3:56 AM 3.2 °F - -0.4 °F 85% 30.27 in - North - - N/A   Overcast
4:16 AM 3.2 °F - 1.4 °F 92% 30.27 in - North - - N/A   Unknown
4:36 AM 5.0 °F - 1.4 °F 85% 30.29 in - North - - N/A   Unknown
4:56 AM 5.0 °F - 1.4 °F 85% 30.29 in - North - - N/A   Unknown
5:16 AM 5.0 °F - 1.4 °F 85% 30.29 in - North - - N/A   Unknown
5:36 AM 5.0 °F - 1.4 °F 85% 30.29 in - North - - N/A   Unknown
5:56 AM 5.0 °F - 1.4 °F 85% 30.30 in 10.0 mi North - - N/A   Clear
6:16 AM 5.0 °F - 1.4 °F 85% 30.30 in 10.0 mi North - - N/A   Clear
6:36 AM 5.0 °F - 1.4 °F 85% 30.32 in 10.0 mi North - - N/A   Clear
6:56 AM 5.0 °F - 1.4 °F 85% 30.34 in 10.0 mi North - - N/A   Clear
7:16 AM 5.0 °F - 1.4 °F 85% 30.35 in 10.0 mi North - - N/A   Clear
7:36 AM 5.0 °F - 1.4 °F 85% 30.36 in 10.0 mi North - - N/A   Clear
7:56 AM 5.0 °F - 3.2 °F 92% 30.38 in 10.0 mi North - - N/A   Clear
8:16 AM 8.6 °F - 3.2 °F 79% 30.39 in 10.0 mi North - - N/A   Clear
8:36 AM 8.6 °F - 5.0 °F 85% 30.40 in 10.0 mi North - - N/A   Clear
8:56 AM 8.6 °F - 5.0 °F 85% 30.40 in 10.0 mi North - - N/A   Clear
9:16 AM 8.6 °F - 5.0 °F 85% 30.40 in 10.0 mi North - - N/A   Clear
9:36 AM 10.4 °F - 5.0 °F 79% 30.40 in 10.0 mi North - - N/A   Clear
9:56 AM 10.4 °F - 6.8 °F 85% 30.40 in 10.0 mi North - - N/A   Clear
10:16 AM 10.4 °F - 6.8 °F 85% 30.40 in 5.0 mi North - - N/A   Clear
10:36 AM 10.4 °F - 6.8 °F 85% 30.41 in 5.0 mi North - - N/A   Clear
10:56 AM 12.2 °F - 8.6 °F 85% 30.42 in 5.0 mi North - - N/A   Clear
11:16 AM 12.2 °F - 8.6 °F 85% 30.43 in 5.0 mi North - - N/A   Clear
11:36 AM 12.2 °F - 10.4 °F 92% 30.43 in 7.0 mi North - - N/A   Mostly Cloudy
11:56 AM 14.0 °F - 10.4 °F 86% 30.43 in 10.0 mi North - - N/A   Scattered Clouds
12:16 PM 14.0 °F - 12.2 °F 93% 30.43 in 7.0 mi North - - N/A   Clear
12:36 PM 15.8 °F - 12.2 °F 86% 30.42 in 4.0 mi North - - N/A   Clear
12:56 PM 15.8 °F - 12.2 °F 86% 30.42 in 7.0 mi North - - N/A   Clear
1:16 PM 17.6 °F -4.3 °F 14.0 °F 86% 30.43 in 7.0 mi West 40.3 mph 44.9 mph N/A   Clear
1:36 PM 17.6 °F -4.5 °F 14.0 °F 86% 30.44 in 7.0 mi West 41.4 mph 47.2 mph N/A   Clear
1:56 PM 17.6 °F -4.5 °F 14.0 °F 86% 30.44 in 10.0 mi West 41.4 mph 47.2 mph N/A   Clear
2:16 PM 17.6 °F - 14.0 °F 86% 30.44 in 10.0 mi North - - N/A   Scattered Clouds
2:36 PM 17.6 °F - 14.0 °F 86% 30.46 in 10.0 mi North - - N/A   Mostly Cloudy
2:56 PM 17.6 °F -4.1 °F 14.0 °F 86% 30.46 in 10.0 mi West 39.1 mph - N/A   Mostly Cloudy
3:16 PM 19.4 °F -0.6 °F 15.8 °F 86% 30.47 in 10.0 mi West 34.5 mph 46.0 mph N/A   Scattered Clouds
3:36 PM 19.4 °F -1.6 °F 15.8 °F 86% 30.47 in 10.0 mi West 39.1 mph 43.7 mph N/A   Clear
3:56 PM 19.4 °F -0.6 °F 15.8 °F 86% 30.48 in 10.0 mi West 34.5 mph 39.1 mph N/A   Clear
4:16 PM 19.4 °F -0.0 °F 15.8 °F 86% 30.48 in 10.0 mi West 32.2 mph 40.3 mph N/A   Clear
4:36 PM 19.4 °F -0.3 °F 14.0 °F 80% 30.49 in 10.0 mi West 33.4 mph 40.3 mph N/A   Clear
4:56 PM 19.4 °F -1.3 °F 14.0 °F 80% 30.49 in 10.0 mi West 38.0 mph - N/A   Clear
5:16 PM 17.6 °F -4.1 °F 14.0 °F 86% 30.49 in 10.0 mi West 39.1 mph - N/A   Clear
5:36 PM 17.6 °F - 14.0 °F 86% 30.50 in 10.0 mi North - - N/A   Clear
5:56 PM 17.6 °F - 14.0 °F 86% 30.51 in 10.0 mi North - - N/A   Clear
6:16 PM 17.6 °F - 14.0 °F 86% 30.52 in 10.0 mi North - - N/A   Clear
6:36 PM 17.6 °F - 14.0 °F 86% 30.52 in 10.0 mi North - - N/A   Clear
6:56 PM 17.6 °F - 12.2 °F 79% 30.53 in 10.0 mi North - - N/A   Clear
7:16 PM 17.6 °F - 12.2 °F 79% 30.53 in 10.0 mi North - - N/A   Clear
7:36 PM 17.6 °F - 12.2 °F 79% 30.53 in 10.0 mi North - - N/A   Clear
7:56 PM 17.6 °F -3.6 °F 12.2 °F 79% 30.54 in 10.0 mi West 36.8 mph - N/A   Clear
8:16 PM 17.6 °F - 12.2 °F 79% 30.55 in 10.0 mi North - - N/A   Clear
8:36 PM 17.6 °F - 12.2 °F 79% 30.55 in 10.0 mi North - - N/A   Clear
8:56 PM 17.6 °F - 12.2 °F 79% 30.56 in 10.0 mi North - - N/A   Clear
9:16 PM 17.6 °F - 12.2 °F 79% 30.56 in 10.0 mi North - - N/A   Clear
9:36 PM 17.6 °F - 12.2 °F 79% 30.57 in 10.0 mi North - - N/A   Clear
9:56 PM 17.6 °F - 12.2 °F 79% 30.57 in 10.0 mi North - - N/A   Clear
10:16 PM 17.6 °F - 12.2 °F 79% 30.57 in 10.0 mi North - - N/A   Clear
10:36 PM 17.6 °F - 12.2 °F 79% 30.57 in 10.0 mi North - - N/A   Clear
10:56 PM 17.6 °F - 12.2 °F 79% 30.56 in 10.0 mi North - - N/A   Clear
11:16 PM 17.6 °F - 12.2 °F 79% 30.56 in 10.0 mi North - - N/A   Clear
11:36 PM 17.6 °F - 12.2 °F 79% 30.56 in 10.0 mi North - - N/A   Clear
11:56 PM 17.6 °F - 12.2 °F 79% 30.56 in 10.0 mi North - - N/A   Clear